When you browse on this site, cookies collect data to enhance your experience and personalize the content and advertising you see.
Visit our Privacy Policy to learn more. By continuing to use the site, you agree to this use of cookies and data.
  • In Austria
  • List of Countries
  • For 7 days
  • Water Temperature
  • Satellite Maps
  • Weather Map
  • News
  • Weather Widgets
  • user-avatar
    Login

    Hourly Weather Santiago del Estero

    Today, 19 January, Saturday

    Time Temperature Precipitation Wind Pressure Humidity
    00:00 +20°C° 0 mm 2 mps 748 mmHg 77%
    01:00 +19°C° 0 mm 2 mps 748 mmHg 81%
    02:00 +20°C° 0 mm 1 mps 748 mmHg 85%
    03:00 +19°C° 0 mm 1 mps 748 mmHg 87%
    04:00 +19°C° 0 mm 1 mps 748 mmHg 88%
    05:00 +19°C° 0 mm 1 mps 748 mmHg 89%
    06:00 +20°C° 0 mm 1 mps 748 mmHg 84%
    07:00 +20°C° 0 mm 2 mps 748 mmHg 79%
    08:00 +21°C° 0 mm 2 mps 749 mmHg 72%
    09:00 +23°C° 0 mm 2 mps 748 mmHg 69%
    10:00 +24°C° 0 mm 2 mps 748 mmHg 65%
    11:00 +25°C° 0 mm 2 mps 747 mmHg 61%
    12:00 +26°C° 0 mm 2 mps 747 mmHg 59%
    13:00 +27°C° 0 mm 3 mps 746 mmHg 56%
    14:00 +28°C° 0 mm 3 mps 746 mmHg 54%
    15:00 +28°C° 0 mm 3 mps 745 mmHg 53%
    16:00 +28°C° 0 mm 3 mps 745 mmHg 53%
    17:00 +28°C° 0 mm 4 mps 744 mmHg 52%
    18:00 +27°C° 0 mm 3 mps 744 mmHg 57%
    19:00 +25°C° 0 mm 3 mps 745 mmHg 62%
    20:00 +23°C° 0 mm 2 mps 745 mmHg 66%
    21:00 +22°C° 0 mm 3 mps 745 mmHg 69%
    22:00 +21°C° 0 mm 3 mps 746 mmHg 71%
    23:00 +21°C° 0 mm 3 mps 746 mmHg 74%

    Tomorrow, 20 January, Sunday

    Time Temperature Precipitation Wind Pressure Humidity
    00:00 +20°C° 0 mm 3 mps 746 mmHg 76%
    01:00 +19°C° 0 mm 2 mps 745 mmHg 79%
    02:00 +19°C° 0 mm 2 mps 745 mmHg 82%
    03:00 +19°C° 0 mm 2 mps 745 mmHg 83%
    04:00 +19°C° 0 mm 1 mps 744 mmHg 85%
    05:00 +19°C° 0 mm 1 mps 744 mmHg 87%
    06:00 +19°C° 0 mm 2 mps 744 mmHg 83%
    07:00 +20°C° 0 mm 2 mps 744 mmHg 78%
    08:00 +22°C° 0 mm 3 mps 744 mmHg 73%
    09:00 +24°C° 0 mm 3 mps 744 mmHg 68%
    10:00 +26°C° 0 mm 3 mps 744 mmHg 62%
    11:00 +28°C° 0 mm 3 mps 743 mmHg 56%
    12:00 +29°C° 0 mm 4 mps 743 mmHg 53%
    13:00 +32°C° 0 mm 4 mps 742 mmHg 50%
    14:00 +33°C° 0 mm 4 mps 741 mmHg 47%
    15:00 +33°C° 0 mm 4 mps 741 mmHg 47%
    16:00 +33°C° 0 mm 4 mps 740 mmHg 47%
    17:00 +33°C° 0 mm 4 mps 739 mmHg 47%
    18:00 +30°C° 0 mm 4 mps 739 mmHg 53%
    19:00 +29°C° 0 mm 4 mps 740 mmHg 58%
    20:00 +27°C° 0 mm 4 mps 740 mmHg 64%
    21:00 +26°C° 0 mm 4 mps 740 mmHg 66%
    22:00 +25°C° 0 mm 4 mps 741 mmHg 68%
    23:00 +25°C° 0 mm 4 mps 741 mmHg 70%

    Day after tomorrow, 21 January, Monday

    Time Temperature Precipitation Wind Pressure Humidity
    00:00 +24°C° 0 mm 3 mps 741 mmHg 73%
    01:00 +24°C° 0 mm 3 mps 740 mmHg 76%
    02:00 +23°C° 0 mm 2 mps 740 mmHg 79%
    03:00 +23°C° 0 mm 2 mps 740 mmHg 80%
    04:00 +23°C° 0 mm 2 mps 740 mmHg 81%
    05:00 +23°C° 0 mm 2 mps 740 mmHg 81%
    06:00 +23°C° 0 mm 2 mps 740 mmHg 79%
    07:00 +24°C° 0 mm 2 mps 741 mmHg 76%
    08:00 +25°C° 0 mm 3 mps 741 mmHg 74%
    09:00 +27°C° 0 mm 3 mps 741 mmHg 66%
    10:00 +29°C° 0 mm 3 mps 741 mmHg 59%
    11:00 +31°C° 0 mm 3 mps 742 mmHg 52%
    12:00 +33°C° 0 mm 4 mps 741 mmHg 48%
    13:00 +34°C° 0 mm 4 mps 741 mmHg 44%
    14:00 +36°C° 0 mm 4 mps 740 mmHg 41%
    15:00 +36°C° 0 mm 4 mps 740 mmHg 40%
    16:00 +37°C° 0 mm 3 mps 739 mmHg 40%
    17:00 +37°C° 0 mm 3 mps 739 mmHg 39%
    18:00 +35°C° 0 mm 3 mps 739 mmHg 45%
    19:00 +33°C° 0 mm 3 mps 739 mmHg 51%
    20:00 +30°C° 0 mm 3 mps 739 mmHg 57%
    21:00 +29°C° 0 mm 3 mps 740 mmHg 61%
    22:00 +29°C° 0 mm 3 mps 740 mmHg 66%
    23:00 +28°C° 0 mm 3 mps 741 mmHg 70%

    22 January, Tuesday

    Time Temperature Precipitation Wind Pressure Humidity
    00:00 +27°C° 0 mm 3 mps 740 mmHg 72%
    01:00 +27°C° 0 mm 2 mps 740 mmHg 74%
    02:00 +26°C° 0 mm 2 mps 739 mmHg 76%
    03:00 +26°C° 0 mm 2 mps 739 mmHg 77%
    04:00 +25°C° 0 mm 2 mps 739 mmHg 78%
    05:00 +25°C° 0 mm 1 mps 738 mmHg 79%
    06:00 +26°C° 0 mm 2 mps 738 mmHg 74%
    07:00 +27°C° 0 mm 2 mps 739 mmHg 68%
    08:00 +29°C° 0 mm 2 mps 739 mmHg 63%
    09:00 +31°C° 0 mm 3 mps 739 mmHg 57%
    10:00 +34°C° 0 mm 3 mps 738 mmHg 51%
    11:00 +36°C° 0 mm 3 mps 738 mmHg 45%
    12:00 +38°C° 0 mm 4 mps 737 mmHg 41%
    13:00 +40°C° 0 mm 5 mps 737 mmHg 37%
    14:00 +42°C° 0 mm 6 mps 736 mmHg 34%
    15:00 +43°C° 0 mm 5 mps 735 mmHg 33%
    16:00 +43°C° 0 mm 5 mps 735 mmHg 32%
    17:00 +43°C° 0 mm 4 mps 734 mmHg 31%
    18:00 +41°C° 0 mm 4 mps 735 mmHg 35%
    19:00 +38°C° 0 mm 3 mps 735 mmHg 39%
    20:00 +36°C° 0 mm 2 mps 735 mmHg 43%
    21:00 +35°C° 0 mm 2 mps 736 mmHg 46%
    22:00 +34°C° 0 mm 2 mps 737 mmHg 50%
    23:00 +32°C° 0 mm 2 mps 737 mmHg 54%

    23 January, Wednesday

    Time Temperature Precipitation Wind Pressure Humidity
    00:00 +32°C° 0 mm 2 mps 737 mmHg 55%
    01:00 +31°C° 0 mm 2 mps 737 mmHg 57%
    02:00 +31°C° 0 mm 1 mps 736 mmHg 58%
    03:00 +30°C° 0 mm 2 mps 736 mmHg 58%
    04:00 +30°C° 0 mm 2 mps 737 mmHg 58%
    05:00 +30°C° 0 mm 2 mps 737 mmHg 58%
    06:00 +31°C° 0 mm 3 mps 737 mmHg 58%
    07:00 +33°C° 0 mm 3 mps 738 mmHg 57%
    08:00 +34°C° 0 mm 4 mps 739 mmHg 57%
    09:00 +36°C° 0 mm 3 mps 739 mmHg 51%
    10:00 +38°C° 0 mm 3 mps 739 mmHg 45%
    11:00 +42°C° 0 mm 3 mps 739 mmHg 39%
    12:00 +43°C° 0 mm 4 mps 738 mmHg 35%
    13:00 +44°C° 0 mm 4 mps 738 mmHg 32%
    14:00 +45°C° 0 mm 4 mps 737 mmHg 28%
    15:00 +45°C° 0 mm 4 mps 737 mmHg 28%
    16:00 +45°C° 0 mm 4 mps 736 mmHg 28%
    17:00 +45°C° 0 mm 3 mps 736 mmHg 28%
    18:00 +42°C° 0 mm 5 mps 736 mmHg 37%
    19:00 +39°C° 0 mm 6 mps 737 mmHg 46%
    20:00 +35°C° 0 mm 7 mps 737 mmHg 55%
    21:00 +35°C° 0 mm 5 mps 737 mmHg 57%
    22:00 +34°C° 0 mm 4 mps 738 mmHg 59%
    23:00 +34°C° 0 mm 2 mps 738 mmHg 61%

    24 January, Thursday

    Time Temperature Precipitation Wind Pressure Humidity
    00:00 +32°C° 0 mm 2 mps 738 mmHg 63%
    01:00 +32°C° 0 mm 2 mps 738 mmHg 64%
    02:00 +31°C° 0 mm 2 mps 737 mmHg 66%
    03:00 +30°C° 0 mm 2 mps 737 mmHg 67%
    04:00 +30°C° 0 mm 2 mps 737 mmHg 67%
    05:00 +30°C° 0 mm 3 mps 737 mmHg 68%
    06:00 +30°C° 0 mm 3 mps 737 mmHg 68%
    07:00 +31°C° 0 mm 3 mps 738 mmHg 69%
    08:00 +31°C° 0 mm 3 mps 738 mmHg 69%
    09:00 +34°C° 0 mm 3 mps 738 mmHg 61%
    10:00 +36°C° 0 mm 3 mps 738 mmHg 54%
    11:00 +38°C° 0 mm 3 mps 737 mmHg 46%
    12:00 +40°C° 0 mm 4 mps 737 mmHg 41%
    13:00 +42°C° 0 mm 5 mps 736 mmHg 36%
    14:00 +45°C° 0 mm 6 mps 735 mmHg 31%
    15:00 +45°C° 0 mm 5 mps 734 mmHg 31%
    16:00 +44°C° 0 mm 4 mps 734 mmHg 30%
    17:00 +44°C° 0 mm 4 mps 733 mmHg 29%
    18:00 +42°C° 0 mm 3 mps 733 mmHg 32%
    19:00 +40°C° 0 mm 3 mps 734 mmHg 34%
    20:00 +38°C° 0 mm 3 mps 734 mmHg 36%
    21:00 +37°C° 0 mm 2 mps 734 mmHg 41%
    22:00 +35°C° 0 mm 2 mps 734 mmHg 45%
    23:00 +34°C° 0 mm 2 mps 735 mmHg 49%
    Show more